This is the latest recevied weather packets stored in our database for station/object IQ5VK-13. If no packets are shown the sender has not sent any weather packets the latest 10 day(s).
| Time | Temp. | Humidity | Pressure | Rain* | Wind** | Luminosity | Snow |
|---|---|---|---|---|---|---|---|
| 1788408762 | 16.67° C | 93% | 1022.4 hPa | - | - | - | - |
| 1788407562 | 17.22° C | 93% | 1022.4 hPa | - | - | - | - |
| 1788406362 | 17.78° C | 94% | 1022.4 hPa | - | - | - | - |
| 1788405162 | 17.78° C | 94% | 1022.3 hPa | - | - | - | - |
| 1788403961 | 18.33° C | 94% | 1022.4 hPa | - | - | - | - |
| 1788402761 | 18.89° C | 94% | 1022.4 hPa | - | - | - | - |
| 1788401561 | 18.89° C | 94% | 1022.5 hPa | - | - | - | - |
| 1788400361 | 18.89° C | 94% | 1022.6 hPa | - | - | - | - |
| 1788399160 | 18.33° C | 94% | 1022.5 hPa | - | - | - | - |
| 1788397960 | 18.33° C | 94% | 1022.4 hPa | - | - | - | - |
| 1788396795 | 18.33° C | 93% | 1022.4 hPa | - | - | - | - |
| 1788396760 | 18.33° C | 93% | 1022.4 hPa | - | - | - | - |
| 1788394364 | 18.33° C | 93% | 1022.6 hPa | - | - | - | - |
| 1788393164 | 18.33° C | 93% | 1022.6 hPa | - | - | - | - |
| 1788391964 | 18.33° C | 92% | 1022.7 hPa | - | - | - | - |
| 1788390763 | 18.89° C | 93% | 1022.7 hPa | - | - | - | - |
| 1788389563 | 18.89° C | 92% | 1022.8 hPa | - | - | - | - |
| 1788388363 | 18.89° C | 92% | 1022.8 hPa | - | - | - | - |
| 1788387162 | 19.44° C | 92% | 1022.8 hPa | - | - | - | - |
| 1788385962 | 19.44° C | 92% | 1022.7 hPa | - | - | - | - |
| 1788384762 | 19.44° C | 92% | 1022.8 hPa | - | - | - | - |
| 1788383562 | 18.89° C | 91% | 1022.7 hPa | - | - | - | - |
| 1788382361 | 18.89° C | 91% | 1022.6 hPa | - | - | - | - |
| 1788381161 | 19.44° C | 91% | 1022.5 hPa | - | - | - | - |
| 1788379961 | 18.89° C | 88% | 1022.7 hPa | - | - | - | - |
* Rain since midnight (hover to see other rain measurements)
** Current wind speed in m/s (hover to see current wind gust speed)